Hauptseite
METAR-TAF:

METAR-TAF

Flughäfen :

Topcliffe, England

Breite: 54-12N, Länge: 001-23W, Höhe: 28 m

Beobachtung

Neuester Wetterbericht von vor 59 Minuten, um 00:50 UTC
Wind 11 kt aus Nord/Nordwest
Temperatur 11°C
Luftfeuchtigkeit 100%
Luftdruck 1024 hPa
Sichtweite: 2600 m
feuchter Dunst

METAR: EGXZ 260050Z AUTO 34011KT 2600 BR OVC003/// 11/11 Q1024

Zeit: 02:49 (01:49 UTC)


TAF: fehlend

Wetterbeobachtungen und Prognosen von mehr als 4000 Flughäfen (METAR und TAF Bericht).

Die verfügbaren Stationen werden durch gelbe und rote Markierungen auf der Karte dargestellt.

Führen Sie die Maus auf sie, um den Namen der Station zu sehen.

Darauf klicken, um die Beobachtung von Wetterbeobachtungen und Prognosen zu sehen.

Um die Karte zu ändern : klicken Sie auf den grünen Tasten mit einem schwarzen Kreuz Zum Vergrößern, auf den grünen Button mit einem Gedankenstrich zu verkleinern, oder auf die grünen Pfeile für benachbarte Karten.


METAR-TAF: